User: anonymous   Login
Location: Unspecified
(0.0000°N, 0.0000°E)
Time: 22:06:39
(UTC+02:00)
Language:

Helios 1A Rocket - Orbit

View from above orbital plane
View from above orbital plane
View from above satellite
View from above satellite

Ground track
Ground track

The orbit data is extracted from the following two-line orbital elements,

1 23608U 95033D   16181.19476381 -.00000108  00000-0 -38636-5 0  9997
2 23608  98.2163  90.1902 0016812 343.6593  16.4082 14.95757077134980
Epoch (UTC): 29 June 2016 04:40:27
Eccentricity: 0.0016812
inclination: 98.2163°
perigee height: 568 km
apogee height: 592 km
right ascension of ascending node: 90.1902°
argument of perigee: 343.6593°
revolutions per day: 14.95757077
mean anomaly at epoch: 16.4082°
orbit number at epoch: 13498

The dashed part of the orbit path shows where the satellite is in the earth's shadow,  

DLR